Location: Newsoms
(36.6240°N, 77.1250°W)
Time: 04:57:37
(UTC-04:00)

Daily predictions for brighter satellites

Satellite Brightness Start Highest point End
(mag) Time Altitude Azimuth Time Altitude Azimuth Time Altitude Azimuth
CZ-4C R/B 4.5 03:29:15 28° NE 03:29:15 28° NE 03:35:23 10° ESE
USA 267 4.3 03:53:35 10° ESE 03:58:02 39° ENE 03:58:02 39° ENE
Cosmos 1943 Rocket 4.1 04:29:43 20° NNE 04:29:43 20° NNE 04:31:20 10° NNE
ADEOS II 3.9 04:23:21 10° NNE 04:25:33 25° NNE 04:25:33 25° NNE
Milstar 3 3.4 04:45:27 42° S 04:45:27 42° S 04:51:32 10° ESE
SJ 16-02 4.0 04:46:31 10° SE 04:49:31 18° E 04:52:32 10° NE
Nadezhda 1 Rocket 4.0 05:08:43 61° NW 05:08:43 61° NW 05:14:28 10° N
Cosmos 2369 Rocket 4.4 05:14:24 12° NNW 05:14:24 12° NNW 05:15:06 10° N
CZ-3 R/B 3.9 05:05:19 34° W 05:17:46 53° SSW 05:27:13 10° SE
CZ-4C R/B 2.8 05:14:33 36° NW 05:17:58 71° WSW 05:25:59 10° SSE
OAO 2 Rocket 3.3 05:18:17 70° S 05:18:17 70° S 05:23:12 10° ESE
APEX 3.5 05:19:08 73° E 05:19:08 73° E 05:23:50 10° SSE
NOSS 3-1 (C) 3.2 05:27:28 50° WSW 05:28:58 71° NW 05:35:16 10° NNE
Okean O Rocket 1.6 05:25:16 10° N 05:29:16 64° NW 05:29:16 64° NW
USA 229 DEB 4.2 05:30:27 37° WNW 05:31:05 38° NW 05:37:28 10° NNE
USA 229 4.2 05:30:31 37° WNW 05:31:10 38° NW 05:37:33 10° NNE
Meteor 1-31 Rocket 3.1 05:29:53 10° NNE 05:33:40 64° ESE 05:37:25 10° S
NOSS 3-1 (A) 3.2 05:31:55 29° SSW 05:35:02 90° WSW 05:41:22 10° NNE
Cosmos-2242 3.2 05:31:09 10° N 05:35:26 69° E 05:39:44 10° SSE
Cosmos 1758 Rocket 4.4 05:37:03 35° NNW 05:37:03 35° NNW 05:39:59 10° N
Cosmos 44 4.5 05:38:35 26° SSW 05:38:35 26° SSW 05:41:11 10° S
Tiangong 2 1.6 05:38:00 60° E 05:38:00 60° E 05:40:43 10° ESE
USA 81 4.3 05:35:11 10° S 05:40:24 69° E 05:45:39 10° N
USA 267 3.5 05:36:32 10° SSE 05:42:45 46° SW 05:45:25 31° WNW
Cosmos 2219 3.5 05:37:18 10° NNW 05:42:57 67° ENE 05:48:33 10° SSE
BREEZE-M DEB (TANK) 3.3 05:42:44 37° NW 05:43:38 43° NNW 05:52:26 10° NE
GPS 2-04 Rocket1 3.2 05:43:54 40° SSW 05:43:54 40° SSW 05:47:23 10° SE
Okean-O 4.1 05:40:49 10° NNE 05:44:56 38° E 05:49:03 10° SSE
Cosmos 2154 Rocket 4.1 05:38:57 10° NNW 05:45:03 51° W 05:51:04 10° SSW
CZ-2C R/B 4.1 05:41:07 10° SSE 05:45:50 69° ENE 05:50:33 10° N
Cosmos 1656 Rocket 4.4 05:49:55 32° WNW 05:50:25 32° WNW 05:55:28 10° N
Shenzhou-11 Module 3.2 05:52:02 30° S 05:52:02 30° S 05:54:12 10° SE
Cosmos 2297 Rocket 4.4 05:48:35 10° N 05:53:09 25° ENE 05:57:42 10° ESE
Meteor 2-5 Rocket 3.8 05:47:50 10° SSW 05:53:42 64° W 05:59:30 10° N
COSMO-SKYMED 1 4.3 05:50:35 10° SE 05:54:29 34° ENE 05:58:25 10° N
SL-8 Rocket 4.1 05:49:20 10° N 05:55:42 84° E 06:02:01 10° S
PAYLOAD B 4.5 05:52:38 10° N 05:57:49 43° WNW 06:03:00 10° SW
Meteor 2-21 4.3 05:52:05 10° N 05:58:08 73° W 06:04:12 10° S
In-Cosmos 22 4.4 05:54:24 10° S 05:59:58 76° E 06:05:41 10° NNE
EO 1 Del DPAF 4.1 05:57:35 10° SSE 06:01:18 51° ENE 06:05:02 10° N
Cosmos 1356 3.4 05:58:21 10° S 06:01:49 86° E 06:05:19 10° N
Cosmos 1269 Rocket 4.3 05:56:57 10° NNW 06:02:15 69° ENE 06:07:32 10° SSE
SJ-6F 4.3 06:01:32 10° N 06:05:34 64° WNW 06:09:35 10° SSW
ADEOS II 3.8 06:04:35 10° NNW 06:06:30 15° NW 06:06:30 15° NW
Cosmos 372 Rocket 4.0 06:03:11 10° SSW 06:08:17 56° WNW 06:13:27 10° N
Meteor 1-16 Rocket 4.3 06:03:06 10° NNW 06:08:40 56° W 06:14:21 10° S
Cosmos 1842 Rocket 3.9 06:07:07 10° N 06:11:28 69° E 06:15:45 10° SSE
Landsat 4 3.8 06:09:57 10° S 06:13:38 50° W 06:17:19 10° NNW
CZ-4B R/B 3.8 06:11:44 10° N 06:16:37 34° WNW 06:21:34 10° SW
Cosmos 2084 Rocket 4.0 06:14:23 10° SSW 06:18:41 59° ESE 06:22:46 10° NE
IDEFIX/ARIANE 42P 3.6 06:13:41 10° NNE 06:18:47 51° E 06:23:49 10° S
Cosmos 2369 4.2 06:14:28 10° S 06:20:01 63° ESE 06:25:36 10° NNE
Meteor 2-14 Rocket 4.4 06:14:43 10° NNW 06:20:40 61° W 06:26:38 10° S
Cosmos 2218 Rocket 4.0 06:16:13 10° N 06:22:26 72° W 06:28:43 10° S
PAYLOAD A 4.5 06:17:51 10° NNE 06:22:32 60° E 06:27:19 10° S
Cosmos 1125 Rocket 4.0 06:18:18 10° SW 06:23:07 37° WNW 06:28:00 10° N
Meteor 2-16 Rocket 4.4 06:19:14 10° NNW 06:25:19 67° W 06:31:24 10° S
DELTA 2 R/B(2) 4.5 06:24:11 22° NW 06:25:24 45° NNE 06:28:50 10° E
Meteor 1-28 Rocket 3.3 06:21:46 10° S 06:25:28 52° W 06:29:12 10° NNW
SJ 16-02 2.0 06:23:52 10° SW 06:27:50 32° WNW 06:31:48 10° N
ERBS 2.4 06:24:42 10° NW 06:28:08 79° NE 06:31:36 10° SE
NOAA 6 4.0 06:26:00 10° N 06:31:09 69° WNW 06:36:14 10° SSW
CZ-3 Stage 3 4.3 06:27:12 13° WSW 06:31:41 63° S 07:03:33 10° E
MTI 4.3 06:30:48 10° S 06:33:51 38° W 06:36:54 10° NNW
Okean 3 Rocket 4.5 06:30:06 10° S 06:34:27 54° E 06:38:49 10° NNE
Cosmos 2344 4.3 06:29:35 10° SSW 06:37:06 58° ESE 06:44:58 10° NE
Nadezhda 3 Rocket 4.3 06:34:36 10° S 06:40:56 77° E 06:47:13 10° N
SKYMED 2 3.6 06:38:08 10° S 06:42:25 64° WSW 06:46:45 10° NNW
Cosmos 2278 3.7 06:38:25 10° SSW 06:44:03 83° WNW 06:49:44 10° NNE
Cosmos 1076 Rocket 4.1 06:43:08 10° S 06:47:26 65° E 06:51:44 10° NNE
NOSS 2-3 (D) 3.8 06:43:04 10° SSW 06:47:38 89° ESE 06:52:50 10° NNE
MSX 4.3 06:47:58 10° NNE 06:53:45 69° ESE 06:59:29 10° S
Cosmos 2251 Rocket 4.3 06:49:06 10° N 06:54:26 59° ENE 06:59:42 10° SSE
CZ-2C R/B 2.5 06:49:53 10° NNE 06:54:53 90° SE 07:00:00 10° SSW
